Weather History for KPHD - November, 2013

Change the Weather History Date:

Sunday, November 17, 2013

  Actual Average Record
Temperature  
Mean Temperature 58 °F 43 °F  
Max Temperature 63 °F 52 °F 70 °F (1988)
Min Temperature 53 °F 33 °F 11 °F (1967)
Degree Days  
Heating Degree Days 7 22  
Month to date heating degree days 351 335  
Since 1 July heating degree days 801 834  
Cooling Degree Days 0 0  
Month to date cooling degree days 0 0  
Year to date cooling degree days 755 697  
Growing Degree Days 8 (Base 50)    
Moisture  
Dew Point 53 °F    
Average Humidity 71    
Maximum Humidity 90    
Minimum Humidity 51    
Precipitation  
Precipitation 0.95 in 0.11 in 0.95 in (2013)
Month to date precipitation 2.48 1.73  
Year to date precipitation 30.49 34.69  
Sea Level Pressure  
Sea Level Pressure 29.77 in    
Wind  
Wind Speed 12 mph (South)    
Max Wind Speed 30 mph    
Max Gust Speed 48 mph    
Visibility 8 miles    
Events Rain    
T = Trace of Precipitation, MM = Missing Value Source: NWS Daily Summary

Daily Weather History Graph

Daily Weather History Graph

Search for Another Location

Airport or City:

Trip Planner

Search our weather history database for the weather conditions in past years. The results will help you decide how hot, cold, wet, or windy it might be!

Date:

Astronomy

Nov. 17, 2013 Rise Set
Actual Time 7:14 AM EST 5:06 PM EST
Civil Twilight 6:45 AM EST 5:35 PM EST
Nautical Twilight 6:12 AM EST 6:09 PM EST
Astronomical Twilight 5:39 AM EST 6:41 PM EST
Moon 5:22 PM EST (11/17) 7:07 AM EST (11/17)
Length of Visible Light 10h 50m
Length of Day
9h 51m
Full, 100% of the Moon is Illuminated
Nov 17
Full
Nov 25
Last Quarter
Dec 2
New
Dec 9
First Quarter
Dec 17
Full

Hourly Weather History & Observations

Time (EST) Temp. Dew Point Humidity Pressure Visibility Wind Dir Wind Speed Gust Speed Precip Events Conditions
12:53 AM 59.0 °F 48.0 °F 67% 29.98 in 10.0 mi South 10.4 mph 19.6 mph 0.00 in Rain Light Rain
1:53 AM 57.9 °F 50.0 °F 75% 29.95 in 10.0 mi SSE 6.9 mph - 0.00 in   Overcast
2:53 AM 57.0 °F 50.0 °F 77% 29.96 in 10.0 mi South 4.6 mph - 0.02 in Rain Light Rain
3:53 AM 57.0 °F 48.9 °F 74% 29.93 in 10.0 mi South 10.4 mph 17.3 mph 0.00 in   Overcast
4:50 AM 55.4 °F 51.8 °F 88% 29.93 in 3.0 mi SSE 3.5 mph - 0.11 in Rain Heavy Rain
4:53 AM 55.0 °F 51.1 °F 86% 29.94 in 3.0 mi SSE 3.5 mph - 0.11 in Rain Rain
5:11 AM 55.4 °F 50.0 °F 82% 29.93 in 10.0 mi SSE 4.6 mph - 0.01 in Rain Light Rain
5:53 AM 55.9 °F 51.1 °F 84% 29.93 in 9.0 mi South 6.9 mph - 0.04 in Rain Light Rain
6:42 AM 57.2 °F 51.8 °F 82% 29.94 in 7.0 mi South 9.2 mph - 0.04 in Rain Rain
6:53 AM 55.9 °F 52.0 °F 87% 29.94 in 2.5 mi South 6.9 mph - 0.11 in Rain Heavy Rain
7:00 AM 55.4 °F 51.8 °F 88% 29.92 in 3.0 mi SSE 6.9 mph - 0.03 in Rain Rain
7:18 AM 55.4 °F 51.8 °F 88% 29.92 in 4.0 mi SSE 4.6 mph - 0.11 in Rain Rain
7:53 AM 55.0 °F 51.1 °F 86% 29.92 in 10.0 mi SSE 8.1 mph - 0.13 in   Overcast
8:23 AM 55.4 °F 51.8 °F 88% 29.91 in 10.0 mi South 8.1 mph - N/A   Overcast
8:39 AM 57.2 °F 51.8 °F 82% 29.90 in 10.0 mi South 10.4 mph 18.4 mph N/A   Overcast
8:53 AM 57.0 °F 52.0 °F 83% 29.90 in 10.0 mi South 11.5 mph 21.9 mph N/A   Overcast
9:53 AM 57.9 °F 53.1 °F 84% 29.90 in 10.0 mi SSW 10.4 mph 20.7 mph 0.01 in Rain Light Rain
10:05 AM 57.2 °F 53.6 °F 88% 29.89 in 10.0 mi South 11.5 mph 24.2 mph 0.00 in Rain Light Rain
10:42 AM 57.2 °F 53.6 °F 88% 29.90 in 9.0 mi South 10.4 mph - 0.01 in Rain Light Rain
10:53 AM 57.0 °F 53.1 °F 87% 29.89 in 7.0 mi South 11.5 mph 17.3 mph 0.02 in Rain Light Rain
11:08 AM 57.2 °F 53.6 °F 88% 29.87 in 9.0 mi South 9.2 mph 18.4 mph 0.02 in Rain Light Rain
11:53 AM 57.9 °F 54.0 °F 87% 29.85 in 10.0 mi South 11.5 mph 27.6 mph 0.02 in Rain Light Rain
12:40 PM 59.0 °F 53.6 °F 82% 29.81 in 10.0 mi South 11.5 mph 17.3 mph 0.00 in   Mostly Cloudy
12:53 PM 60.1 °F 54.0 °F 80% 29.81 in 10.0 mi South 11.5 mph 25.3 mph 0.00 in Rain Light Rain
1:53 PM 60.1 °F 54.0 °F 80% 29.75 in 9.0 mi South 15.0 mph 23.0 mph 0.01 in   Overcast
2:53 PM 61.0 °F 54.0 °F 78% 29.73 in 10.0 mi South 10.4 mph 23.0 mph 0.00 in   Overcast
3:53 PM 60.1 °F 55.0 °F 83% 29.68 in 10.0 mi South 15.0 mph 24.2 mph 0.00 in   Overcast
4:53 PM 61.0 °F 54.0 °F 78% 29.65 in 10.0 mi South 17.3 mph 29.9 mph N/A   Overcast
5:53 PM 60.1 °F 55.0 °F 83% 29.63 in 4.0 mi South 13.8 mph 24.2 mph 0.03 in Rain Heavy Rain
6:25 PM 60.8 °F 55.4 °F 82% 29.60 in 10.0 mi SSE 15.0 mph 24.2 mph 0.05 in Rain Light Rain
6:48 PM 60.8 °F 55.4 °F 82% 29.57 in 8.0 mi SSE 12.7 mph 25.3 mph 0.05 in Rain Light Rain
6:53 PM 60.1 °F 55.9 °F 86% 29.57 in 8.0 mi SSE 15.0 mph 25.3 mph 0.05 in Rain Light Rain
7:26 PM 60.8 °F 55.4 °F 82% 29.55 in 7.0 mi South 13.8 mph 26.5 mph 0.06 in Rain Light Rain
7:36 PM 60.8 °F 55.4 °F 82% 29.54 in 9.0 mi SSE 19.6 mph 34.5 mph 0.06 in Rain Light Rain
7:53 PM 61.0 °F 57.0 °F 87% 29.53 in 7.0 mi South 23.0 mph 32.2 mph 0.11 in Rain Light Rain
8:01 PM 60.8 °F 57.2 °F 88% 29.53 in 7.0 mi South 18.4 mph 34.5 mph 0.01 in Rain Rain
8:22 PM 62.6 °F 57.2 °F 82% 29.52 in 2.5 mi South 13.8 mph 48.3 mph 0.15 in Rain Rain
8:31 PM 62.6 °F 57.2 °F 82% 29.55 in 3.0 mi SSW 23.0 mph 42.6 mph 0.20 in Rain Heavy Rain
8:42 PM 60.8 °F 57.2 °F 88% 29.58 in 2.0 mi WSW 28.8 mph 47.2 mph 0.27 in Rain Heavy Rain
8:53 PM 60.1 °F 55.0 °F 83% 29.56 in 8.0 mi WSW 23.0 mph 38.0 mph 0.29 in Rain Light Rain
9:53 PM 59.0 °F 53.1 °F 81% 29.59 in 10.0 mi WSW 13.8 mph 23.0 mph 0.00 in   Overcast
10:53 PM 57.0 °F 39.9 °F 53% 29.63 in 10.0 mi WSW 20.7 mph 35.7 mph N/A   Partly Cloudy
11:53 PM 54.0 °F 37.9 °F 55% 29.68 in 10.0 mi WSW 13.8 mph 29.9 mph N/A   Clear